contact:dominique.lefevre@mio.osupytheas.fr, maurice.libes@osupytheas.fr, didier.mallarino@osupytheas.fr
Project:EMSO http://www.emso-fr.org/EMSO-France
Depth: 2436.0 m
Title:EMSO Ligure Ouest : Data MII capteur AQUADOPP
Date,Latitude,Longitude,X_East,Y_North,Z_Up,Amplitude_X,Amplitude_Y,Amplitude_Z,Batterie,SoundSpeed,Heading,Pitch,Roll,Pressure,TIS,Speed,Direction
, degrees North, degrees East, m.s-1, m.s-1,m.s-1, 1, 1, 1, Volt, m.s-1, degree, degree, degree, dbar, degree_C, m.s-1, degree
2019-07-13T00:01:42,42.805,6.029,0.049,-0.036,0.006,103.0,105.0,98.0,13.4,1505.3,327.2,-0.7,1.8,2470.036,13.32,0.06,126.3
2019-07-13T00:04:43,42.805,6.029,0.03,-0.021,-0.003,103.0,105.0,99.0,13.4,1505.3,323.9,-0.7,1.8,2470.077,13.32,0.036,125.0
2019-07-13T00:07:44,42.805,6.029,0.029,-0.04,-0.012,104.0,104.0,99.0,13.4,1505.3,324.6,-0.7,1.9,2470.063,13.32,0.049,144.1
2019-07-13T00:10:45,42.805,6.029,0.013,-0.021,-0.033,103.0,104.0,100.0,13.4,1505.3,323.7,-0.7,1.9,2470.101,13.32,0.024,148.2
2019-07-13T00:13:46,42.805,6.029,0.036,-0.033,-0.001,102.0,106.0,99.0,13.3,1505.3,326.6,-0.7,1.9,2470.09,13.32,0.048,132.5
2019-07-13T00:16:47,42.805,6.029,0.015,-0.017,-0.028,103.0,105.0,99.0,13.4,1505.3,327.1,-0.7,1.8,2470.017,13.32,0.022,138.6
2019-07-13T00:19:48,42.805,6.029,0.041,-0.016,0.003,104.0,107.0,99.0,13.4,1505.3,323.7,-0.7,1.9,2470.056,13.32,0.044,111.3
2019-07-13T00:22:49,42.805,6.029,0.025,-0.014,-0.005,103.0,104.0,100.0,13.3,1505.3,326.5,-0.7,1.8,2470.081,13.32,0.028,119.3
2019-07-13T00:25:50,42.805,6.029,0.034,-0.04,-0.021,104.0,106.0,98.0,13.4,1505.3,325.5,-0.7,1.9,2470.066,13.32,0.052,139.6
2019-07-13T00:28:51,42.805,6.029,0.031,-0.023,-0.01,103.0,106.0,98.0,13.4,1505.3,326.2,-0.7,1.9,2470.092,13.32,0.038,126.6
2019-07-13T00:31:52,42.805,6.029,0.016,-0.018,-0.027,102.0,105.0,98.0,13.4,1505.3,327.4,-0.7,1.8,2470.071,13.32,0.024,138.4
2019-07-13T00:34:53,42.805,6.029,0.03,-0.031,-0.018,104.0,104.0,98.0,13.4,1505.3,323.6,-0.7,1.8,2470.021,13.32,0.043,135.9
2019-07-13T00:37:54,42.805,6.029,0.024,0.004,-0.015,103.0,104.0,99.0,13.4,1505.3,327.1,-0.8,1.9,2470.044,13.32,0.024,80.5
2019-07-13T00:40:55,42.805,6.029,0.029,-0.034,-0.019,104.0,105.0,98.0,13.4,1505.3,325.6,-0.7,1.8,2470.079,13.32,0.044,139.5
2019-07-13T00:43:56,42.805,6.029,0.022,-0.023,-0.016,105.0,104.0,100.0,13.4,1505.3,327.3,-0.8,1.8,2470.023,13.32,0.031,136.3
2019-07-13T00:46:57,42.805,6.029,0.018,-0.011,-0.016,103.0,104.0,100.0,13.4,1505.3,323.5,-0.7,1.9,2470.05,13.32,0.021,121.4
2019-07-13T00:49:58,42.805,6.029,0.012,-0.019,0.034,103.0,105.0,99.0,13.4,1505.3,324.6,-0.7,1.9,2470.067,13.32,0.022,147.7
2019-07-13T00:52:59,42.805,6.029,0.03,-0.031,-0.006,104.0,105.0,99.0,13.4,1505.3,327.8,-0.7,1.9,2470.065,13.32,0.043,135.9
2019-07-13T00:56:00,42.805,6.029,0.038,-0.019,0.011,102.0,106.0,99.0,13.3,1505.3,323.8,-0.7,1.8,2470.089,13.32,0.042,116.6
2019-07-13T00:59:01,42.805,6.029,0.027,-0.007,-0.015,103.0,105.0,99.0,13.3,1505.3,326.6,-0.7,1.8,2470.055,13.32,0.027,104.5
2019-07-13T01:02:02,42.805,6.029,0.017,-0.05,-0.009,103.0,105.0,99.0,13.4,1505.3,327.7,-0.7,1.9,2470.081,13.32,0.052,161.2
2019-07-13T01:05:03,42.805,6.029,0.018,-0.044,-0.037,102.0,104.0,98.0,13.4,1505.3,327.2,-0.7,1.9,2470.062,13.32,0.047,157.8
2019-07-13T01:08:04,42.805,6.029,0.027,-0.024,-0.029,102.0,105.0,99.0,13.4,1505.3,328.3,-0.7,1.8,2470.094,13.32,0.036,131.6
2019-07-13T01:11:05,42.805,6.029,0.027,-0.029,-0.024,101.0,104.0,99.0,13.4,1505.3,326.6,-0.7,1.9,2470.063,13.32,0.039,137.0
2019-07-13T01:14:06,42.805,6.029,0.031,-0.022,0.012,100.0,104.0,98.0,13.4,1505.3,325.3,-0.7,1.8,2470.106,13.32,0.038,125.4
2019-07-13T01:17:07,42.805,6.029,0.016,-0.021,0.004,101.0,106.0,99.0,13.4,1505.3,325.4,-0.7,1.8,2470.111,13.32,0.026,142.7
2019-07-13T01:20:08,42.805,6.029,0.046,-0.005,-0.004,102.0,106.0,99.0,13.4,1505.3,325.8,-0.7,1.8,2470.096,13.32,0.046,96.2
2019-07-13T01:23:09,42.805,6.029,0.024,-0.021,0.009,104.0,105.0,98.0,13.3,1505.3,325.3,-0.7,1.8,2470.038,13.32,0.031,131.2
2019-07-13T01:26:10,42.805,6.029,0.019,-0.025,-0.032,101.0,105.0,99.0,13.4,1505.3,326.2,-0.7,1.8,2470.112,13.32,0.031,142.8
2019-07-13T01:29:11,42.805,6.029,0.02,-0.014,-0.011,101.0,105.0,99.0,13.4,1505.3,324.1,-0.7,1.8,2470.073,13.32,0.024,125.0
2019-07-13T01:32:12,42.805,6.029,0.018,-0.015,-0.016,103.0,107.0,99.0,13.4,1505.3,327.7,-0.7,1.8,2470.087,13.32,0.023,129.8
2019-07-13T01:35:13,42.805,6.029,0.034,-0.015,0.003,102.0,106.0,98.0,13.4,1505.3,324.1,-0.7,1.8,2470.138,13.32,0.037,113.8
2019-07-13T01:38:14,42.805,6.029,0.023,-0.015,-0.025,104.0,102.0,98.0,13.4,1505.3,326.6,-0.7,1.8,2470.076,13.32,0.027,123.1
2019-07-13T01:41:15,42.805,6.029,0.038,-0.026,0.0,101.0,103.0,99.0,13.3,1505.3,327.0,-0.8,1.8,2470.125,13.32,0.046,124.4
2019-07-13T01:44:16,42.805,6.029,0.043,-0.021,-0.008,102.0,106.0,98.0,13.4,1505.3,327.7,-0.7,1.8,2470.117,13.32,0.047,116.0
2019-07-13T01:47:17,42.805,6.029,0.002,-0.017,-0.02,101.0,106.0,99.0,13.4,1505.3,323.7,-0.7,1.8,2470.061,13.32,0.017,173.3
2019-07-13T01:50:18,42.805,6.029,0.037,-0.028,-0.035,102.0,104.0,99.0,13.4,1505.3,324.9,-0.7,1.9,2470.101,13.32,0.046,127.1
2019-07-13T01:53:19,42.805,6.029,0.025,-0.012,-0.021,101.0,104.0,99.0,13.3,1505.3,323.1,-0.7,1.9,2470.118,13.32,0.027,115.6
2019-07-13T01:56:20,42.805,6.029,0.031,-0.022,-0.004,101.0,105.0,99.0,13.3,1505.3,324.7,-0.7,1.8,2470.105,13.32,0.038,125.4
2019-07-13T01:59:21,42.805,6.029,0.016,-0.039,-0.022,102.0,104.0,99.0,13.4,1505.3,327.8,-0.7,1.8,2470.094,13.32,0.042,157.7
2019-07-13T02:02:22,42.805,6.029,0.059,-0.001,0.02,102.0,105.0,97.0,13.4,1505.3,323.8,-0.7,1.8,2470.106,13.32,0.059,91.0
2019-07-13T02:05:23,42.805,6.029,0.01,0.017,-0.076,102.0,104.0,99.0,13.4,1505.3,326.6,-0.7,1.8,2470.151,13.32,0.019,30.5
2019-07-13T02:08:24,42.805,6.029,0.029,-0.008,-0.027,103.0,104.0,99.0,13.4,1505.3,324.5,-0.8,1.8,2470.109,13.32,0.03,105.4
2019-07-13T02:11:25,42.805,6.029,0.024,-0.009,-0.015,102.0,103.0,98.0,13.4,1505.3,324.5,-0.7,1.8,2470.091,13.32,0.025,110.6
2019-07-13T02:14:26,42.805,6.029,0.063,-0.029,-0.033,101.0,103.0,98.0,13.3,1505.3,326.4,-0.7,1.8,2470.131,13.32,0.069,114.7
2019-07-13T02:17:27,42.805,6.029,-0.001,-0.029,-0.035,101.0,103.0,98.0,13.4,1505.3,327.8,-0.7,1.8,2470.12,13.32,0.029,182.0
2019-07-13T02:20:28,42.805,6.029,0.025,0.002,-0.019,101.0,105.0,98.0,13.4,1505.3,324.0,-0.7,1.8,2470.099,13.32,0.025,85.4
2019-07-13T02:23:29,42.805,6.029,0.008,-0.029,-0.024,102.0,104.0,99.0,13.3,1505.3,324.8,-0.7,1.9,2470.149,13.32,0.03,164.6
2019-07-13T02:26:30,42.805,6.029,0.014,-0.005,0.0,105.0,104.0,98.0,13.4,1505.3,324.4,-0.7,1.8,2470.137,13.32,0.014,109.6
2019-07-13T02:29:31,42.805,6.029,0.039,-0.045,0.001,103.0,102.0,99.0,13.3,1505.3,324.3,-0.7,1.8,2470.085,13.32,0.059,139.1
2019-07-13T02:32:32,42.805,6.029,0.035,-0.011,-0.018,102.0,103.0,99.0,13.3,1505.3,324.5,-0.7,1.8,2470.086,13.32,0.036,107.4
2019-07-13T02:35:33,42.805,6.029,0.015,-0.02,-0.02,103.0,105.0,98.0,13.4,1505.3,327.3,-0.7,1.8,2470.124,13.32,0.025,143.1
2019-07-13T02:38:34,42.805,6.029,0.04,-0.012,0.0,102.0,104.0,99.0,13.4,1505.3,324.2,-0.7,1.8,2470.146,13.32,0.041,106.7
2019-07-13T02:41:35,42.805,6.029,0.019,-0.011,-0.005,100.0,104.0,98.0,13.4,1505.3,324.3,-0.7,1.8,2470.149,13.32,0.021,120.1
2019-07-13T02:44:36,42.805,6.029,-0.008,-0.011,-0.032,102.0,104.0,99.0,13.4,1505.3,323.5,-0.7,1.8,2470.108,13.32,0.013,216.0
2019-07-13T02:47:37,42.805,6.029,0.023,-0.013,-0.024,101.0,105.0,99.0,13.3,1505.3,325.2,-0.7,1.8,2470.15,13.32,0.026,119.5
2019-07-13T02:50:38,42.805,6.029,0.039,-0.023,-0.051,102.0,104.0,99.0,13.4,1505.3,328.1,-0.8,1.8,2470.112,13.32,0.045,120.5
2019-07-13T02:53:39,42.805,6.029,0.032,-0.023,-0.027,101.0,105.0,99.0,13.3,1505.3,323.2,-0.7,1.8,2470.172,13.32,0.039,125.7
2019-07-13T02:56:40,42.805,6.029,0.025,0.006,-0.025,102.0,104.0,98.0,13.4,1505.3,326.5,-0.7,1.9,2470.126,13.32,0.025,76.5
2019-07-13T02:59:41,42.805,6.029,0.061,-0.013,-0.002,101.0,105.0,99.0,13.3,1505.3,326.3,-0.7,1.9,2470.155,13.32,0.062,102.0
2019-07-13T03:02:42,42.805,6.029,0.029,0.0,-0.034,102.0,104.0,98.0,13.4,1505.3,325.6,-0.7,1.9,2470.135,13.32,0.028,90.0
2019-07-13T03:05:43,42.805,6.029,0.032,-0.008,0.006,102.0,106.0,98.0,13.4,1505.3,324.8,-0.7,1.8,2470.129,13.32,0.032,104.0
2019-07-13T03:08:44,42.805,6.029,0.023,-0.02,-0.037,101.0,104.0,98.0,13.4,1505.3,327.9,-0.7,1.9,2470.17,13.32,0.03,131.0
2019-07-13T03:11:45,42.805,6.029,0.024,-0.016,-0.013,104.0,104.0,99.0,13.4,1505.3,323.5,-0.7,1.8,2470.118,13.32,0.028,123.7
2019-07-13T03:14:46,42.805,6.029,0.029,-0.03,-0.055,102.0,103.0,98.0,13.4,1505.3,324.4,-0.7,1.8,2470.146,13.32,0.041,136.0
2019-07-13T03:17:47,42.805,6.029,0.037,-0.04,-0.04,101.0,102.0,99.0,13.4,1505.3,326.8,-0.7,1.9,2470.122,13.32,0.054,137.2
2019-07-13T03:20:48,42.805,6.029,0.012,-0.015,-0.031,102.0,103.0,97.0,13.4,1505.3,326.0,-0.7,1.8,2470.127,13.32,0.019,141.3
2019-07-13T03:23:49,42.805,6.029,0.037,-0.011,0.0,102.0,104.0,98.0,13.4,1505.3,325.4,-0.7,1.9,2470.13,13.32,0.038,106.6
2019-07-13T03:26:50,42.805,6.029,0.021,-0.022,-0.027,103.0,104.0,98.0,13.4,1505.3,325.2,-0.7,1.8,2470.122,13.32,0.03,136.3
2019-07-13T03:29:51,42.805,6.029,0.045,-0.013,-0.018,102.0,103.0,98.0,13.4,1505.3,325.9,-0.7,1.9,2470.141,13.32,0.046,106.1
2019-07-13T03:32:52,42.805,6.029,0.034,-0.006,-0.021,102.0,105.0,99.0,13.4,1505.3,326.8,-0.7,1.8,2470.153,13.32,0.034,100.0
2019-07-13T03:35:53,42.805,6.029,0.036,-0.02,-0.006,102.0,104.0,98.0,13.4,1505.3,323.2,-0.7,1.8,2470.166,13.32,0.041,119.1
2019-07-13T03:38:54,42.805,6.029,0.025,-0.014,0.01,101.0,104.0,99.0,13.3,1505.3,326.6,-0.7,1.8,2470.097,13.32,0.028,119.3
2019-07-13T03:41:55,42.805,6.029,0.03,-0.011,-0.024,103.0,105.0,98.0,13.4,1505.3,325.8,-0.8,1.8,2470.135,13.32,0.031,110.1
2019-07-13T03:44:56,42.805,6.029,0.027,-0.026,-0.007,100.0,105.0,98.0,13.4,1505.3,328.2,-0.7,1.8,2470.126,13.32,0.037,133.9
2019-07-13T03:47:57,42.805,6.029,0.032,-0.009,-0.026,104.0,104.0,98.0,13.4,1505.3,323.4,-0.7,1.8,2470.139,13.32,0.033,105.7
2019-07-13T03:50:58,42.805,6.029,0.035,-0.006,-0.06,102.0,104.0,99.0,13.4,1505.3,326.7,-0.7,1.8,2470.124,13.32,0.035,99.7
2019-07-13T03:53:59,42.805,6.029,0.026,-0.026,-0.015,101.0,107.0,98.0,13.4,1505.3,324.4,-0.7,1.8,2470.185,13.32,0.036,135.0
2019-07-13T03:57:00,42.805,6.029,0.032,-0.016,-0.033,103.0,104.0,99.0,13.4,1505.3,327.9,-0.7,1.8,2470.13,13.32,0.035,116.6
2019-07-13T04:00:01,42.805,6.029,0.026,-0.005,-0.05,102.0,103.0,99.0,13.3,1505.3,325.3,-0.7,1.9,2470.148,13.32,0.026,100.9
2019-07-13T04:03:02,42.805,6.029,0.038,-0.012,-0.016,104.0,105.0,97.0,13.4,1505.3,324.4,-0.7,1.9,2470.159,13.32,0.039,107.5
2019-07-13T04:06:03,42.805,6.029,0.034,-0.018,-0.021,103.0,105.0,99.0,13.4,1505.3,323.4,-0.7,1.8,2470.122,13.32,0.038,117.9
2019-07-13T04:09:04,42.805,6.029,0.047,-0.028,-0.009,102.0,105.0,100.0,13.4,1505.3,325.3,-0.7,1.9,2470.109,13.32,0.054,120.8
2019-07-13T04:12:05,42.805,6.029,0.037,-0.019,-0.029,102.0,104.0,99.0,13.4,1505.3,325.0,-0.7,1.8,2470.143,13.32,0.041,117.2
2019-07-13T04:15:06,42.805,6.029,0.04,-0.039,-0.03,102.0,104.0,98.0,13.4,1505.3,326.3,-0.7,1.9,2470.134,13.32,0.055,134.3
2019-07-13T04:18:07,42.805,6.029,0.027,-0.025,-0.008,101.0,102.0,98.0,13.4,1505.3,325.4,-0.7,1.9,2470.139,13.32,0.036,132.8
2019-07-13T04:21:08,42.805,6.029,0.036,-0.036,-0.055,101.0,104.0,99.0,13.4,1505.3,326.1,-0.7,1.8,2470.166,13.32,0.05,135.0
2019-07-13T04:24:09,42.805,6.029,0.026,-0.04,-0.045,102.0,104.0,99.0,13.4,1505.3,325.2,-0.7,1.8,2470.146,13.32,0.047,147.0
2019-07-13T04:27:10,42.805,6.029,0.045,-0.032,-0.015,103.0,104.0,98.0,13.4,1505.3,326.5,-0.8,1.8,2470.151,13.32,0.055,125.4
2019-07-13T04:30:11,42.805,6.029,0.034,-0.032,-0.004,102.0,104.0,99.0,13.4,1505.3,327.3,-0.7,1.9,2470.139,13.32,0.046,133.3
2019-07-13T04:33:12,42.805,6.029,0.024,-0.03,-0.015,103.0,106.0,99.0,13.3,1505.3,326.2,-0.7,1.8,2470.157,13.32,0.038,141.3
2019-07-13T04:36:13,42.805,6.029,0.02,-0.021,-0.064,104.0,105.0,99.0,13.4,1505.3,323.3,-0.7,1.8,2470.153,13.32,0.028,136.4
2019-07-13T04:39:14,42.805,6.029,0.022,-0.017,-0.018,104.0,104.0,98.0,13.4,1505.3,325.0,-0.7,1.8,2470.194,13.32,0.027,127.7
2019-07-13T04:42:15,42.805,6.029,0.041,-0.019,-0.021,102.0,104.0,99.0,13.4,1505.3,325.6,-0.8,1.8,2470.125,13.32,0.045,114.9
2019-07-13T04:45:16,42.805,6.029,0.045,-0.009,-0.054,104.0,106.0,98.0,13.4,1505.3,328.3,-0.7,1.8,2470.138,13.32,0.045,101.3
2019-07-13T04:48:17,42.805,6.029,0.038,-0.024,-0.058,103.0,103.0,100.0,13.4,1505.3,324.7,-0.7,1.8,2470.129,13.32,0.044,122.3
2019-07-13T04:51:18,42.805,6.029,0.047,-0.011,-0.046,102.0,104.0,98.0,13.3,1505.3,326.6,-0.7,1.8,2470.164,13.32,0.048,103.2
2019-07-13T04:54:19,42.805,6.029,0.064,-0.024,-0.025,102.0,105.0,99.0,13.3,1505.3,322.7,-0.7,1.8,2470.151,13.32,0.068,110.6
2019-07-13T04:57:20,42.805,6.029,0.05,-0.023,-0.026,102.0,106.0,98.0,13.4,1505.3,325.3,-0.7,1.9,2470.137,13.32,0.055,114.7
2019-07-13T05:00:21,42.805,6.029,0.008,-0.013,0.008,102.0,105.0,99.0,13.4,1505.3,324.8,-0.7,1.9,2470.143,13.32,0.015,148.4
2019-07-13T05:03:22,42.805,6.029,0.03,-0.032,-0.025,101.0,107.0,98.0,13.4,1505.3,327.6,-0.7,1.8,2470.152,13.32,0.043,136.9
2019-07-13T05:06:23,42.805,6.029,0.016,-0.011,-0.038,103.0,106.0,100.0,13.4,1505.3,325.5,-0.7,1.9,2470.152,13.32,0.019,124.5
2019-07-13T05:09:24,42.805,6.029,0.051,-0.029,-0.034,102.0,105.0,100.0,13.4,1505.3,325.1,-0.7,1.8,2470.141,13.32,0.058,119.6
2019-07-13T05:12:25,42.805,6.029,0.031,-0.005,-0.013,102.0,107.0,97.0,13.3,1505.3,326.6,-0.7,1.8,2470.156,13.32,0.031,99.2
2019-07-13T05:15:26,42.805,6.029,0.023,0.004,-0.007,102.0,106.0,99.0,13.4,1505.3,325.2,-0.7,1.8,2470.139,13.32,0.023,80.1
2019-07-13T05:18:27,42.805,6.029,0.028,-0.032,-0.02,102.0,107.0,99.0,13.4,1505.3,328.4,-0.7,1.8,2470.138,13.32,0.042,138.8
2019-07-13T05:21:28,42.805,6.029,0.046,-0.01,-0.018,102.0,106.0,98.0,13.4,1505.3,325.6,-0.7,1.8,2470.162,13.32,0.047,102.3
2019-07-13T05:24:29,42.805,6.029,0.04,-0.037,-0.002,101.0,104.0,99.0,13.4,1505.3,327.3,-0.7,1.8,2470.131,13.32,0.054,132.8
2019-07-13T05:27:30,42.805,6.029,0.03,0.0,0.003,102.0,107.0,98.0,13.4,1505.3,324.1,-0.8,1.9,2470.138,13.32,0.03,90.0
2019-07-13T05:30:31,42.805,6.029,0.007,-0.009,-0.043,102.0,104.0,99.0,13.3,1505.3,325.6,-0.7,1.8,2470.143,13.32,0.011,142.1
2019-07-13T05:33:32,42.805,6.029,0.041,0.0,-0.056,102.0,105.0,100.0,13.4,1505.3,323.6,-0.7,1.8,2470.101,13.32,0.041,90.0
2019-07-13T05:36:33,42.805,6.029,0.052,-0.029,0.004,104.0,105.0,98.0,13.4,1505.3,325.4,-0.7,1.9,2470.144,13.32,0.059,119.1
2019-07-13T05:39:34,42.805,6.029,0.043,-0.013,-0.032,102.0,106.0,99.0,13.3,1505.3,327.4,-0.7,1.8,2470.132,13.32,0.044,106.8
2019-07-13T05:42:35,42.805,6.029,0.042,0.003,-0.05,102.0,105.0,100.0,13.3,1505.3,324.9,-0.7,1.9,2470.141,13.32,0.042,85.9
2019-07-13T05:45:36,42.805,6.029,0.026,-0.017,-0.035,103.0,105.0,99.0,13.3,1505.3,328.2,-0.7,1.8,2470.14,13.32,0.031,123.2
2019-07-13T05:48:37,42.805,6.029,0.054,-0.029,-0.018,102.0,104.0,99.0,13.3,1505.3,323.2,-0.7,1.9,2470.138,13.32,0.061,118.2
2019-07-13T05:51:38,42.805,6.029,0.021,0.0,-0.008,102.0,104.0,99.0,13.4,1505.3,324.6,-0.7,1.8,2470.123,13.32,0.021,90.0
2019-07-13T05:54:39,42.805,6.029,0.037,-0.035,0.0,104.0,103.0,99.0,13.4,1505.3,323.6,-0.7,1.8,2470.122,13.32,0.05,133.4
2019-07-13T05:57:40,42.805,6.029,0.013,-0.028,-0.041,102.0,105.0,100.0,13.4,1505.3,325.8,-0.7,1.8,2470.131,13.32,0.03,155.1
2019-07-13T06:00:41,42.805,6.029,0.034,-0.008,0.01,104.0,105.0,99.0,13.4,1505.3,323.0,-0.7,1.8,2470.152,13.32,0.034,103.2
2019-07-13T06:03:42,42.805,6.029,0.026,-0.035,-0.022,102.0,105.0,99.0,13.3,1505.3,326.0,-0.7,1.8,2470.172,13.32,0.043,143.4
2019-07-13T06:06:43,42.805,6.029,0.047,-0.011,-0.025,103.0,105.0,98.0,13.4,1505.3,326.6,-0.7,1.8,2470.143,13.32,0.048,103.2
2019-07-13T06:09:44,42.805,6.029,0.046,-0.03,-0.011,104.0,103.0,98.0,13.4,1505.3,325.8,-0.7,1.8,2470.125,13.32,0.054,123.1
2019-07-13T06:12:45,42.805,6.029,0.014,-0.019,-0.024,102.0,106.0,99.0,13.4,1505.3,326.3,-0.8,1.9,2470.164,13.32,0.023,143.6
2019-07-13T06:15:46,42.805,6.029,0.038,-0.015,-0.024,102.0,103.0,99.0,13.4,1505.3,326.6,-0.7,1.8,2470.107,13.32,0.04,111.5
2019-07-13T06:18:47,42.805,6.029,0.036,-0.035,-0.038,103.0,104.0,100.0,13.4,1505.3,327.0,-0.7,1.8,2470.13,13.32,0.05,134.2
2019-07-13T06:21:48,42.805,6.029,0.042,-0.018,-0.004,103.0,104.0,98.0,13.3,1505.3,325.0,-0.7,1.8,2470.1,13.32,0.045,113.2
2019-07-13T06:24:49,42.805,6.029,0.024,-0.023,-0.029,102.0,104.0,99.0,13.4,1505.3,325.1,-0.7,1.8,2470.148,13.32,0.033,133.8
2019-07-13T06:27:50,42.805,6.029,0.059,-0.029,-0.019,101.0,102.0,99.0,13.4,1505.3,326.9,-0.7,1.9,2470.109,13.32,0.065,116.2
2019-07-13T06:30:51,42.805,6.029,0.009,-0.028,-0.018,102.0,104.0,99.0,13.4,1505.3,323.1,-0.7,1.8,2470.094,13.32,0.029,162.2
2019-07-13T06:33:52,42.805,6.029,0.034,-0.029,-0.014,102.0,104.0,99.0,13.4,1505.3,324.9,-0.7,1.9,2470.138,13.32,0.044,130.5
2019-07-13T06:36:53,42.805,6.029,0.045,-0.005,-0.002,102.0,103.0,99.0,13.4,1505.3,323.0,-0.8,1.8,2470.092,13.32,0.045,96.3
2019-07-13T06:39:54,42.805,6.029,0.034,-0.018,-0.028,104.0,103.0,98.0,13.4,1505.3,325.4,-0.7,1.8,2470.081,13.32,0.038,117.9
2019-07-13T06:42:55,42.805,6.029,0.025,-0.02,-0.019,102.0,103.0,97.0,13.3,1505.3,323.6,-0.7,1.8,2470.106,13.32,0.032,128.7
2019-07-13T06:45:56,42.805,6.029,0.027,-0.006,-0.023,104.0,103.0,99.0,13.4,1505.3,326.5,-0.7,1.9,2470.105,13.32,0.027,102.5
2019-07-13T06:48:57,42.805,6.029,0.029,-0.019,-0.012,100.0,104.0,98.0,13.4,1505.3,322.9,-0.7,1.8,2470.131,13.32,0.034,123.2
2019-07-13T06:51:58,42.805,6.029,0.033,-0.035,-0.006,103.0,104.0,99.0,13.4,1505.3,326.3,-0.7,1.8,2470.102,13.32,0.048,136.7
2019-07-13T06:54:59,42.805,6.029,0.031,-0.024,-0.027,102.0,104.0,99.0,13.4,1505.3,325.0,-0.7,1.9,2470.099,13.32,0.039,127.7
2019-07-13T06:58:00,42.805,6.029,0.033,-0.001,-0.018,102.0,105.0,99.0,13.4,1505.3,323.2,-0.7,1.8,2470.061,13.32,0.033,91.7
2019-07-13T07:01:01,42.805,6.029,0.028,-0.037,-0.034,102.0,104.0,99.0,13.4,1505.3,326.4,-0.7,1.9,2470.095,13.32,0.046,142.9
2019-07-13T07:04:02,42.805,6.029,0.017,-0.043,-0.015,101.0,102.0,100.0,13.4,1505.3,327.2,-0.7,1.8,2470.104,13.32,0.046,158.4
2019-07-13T07:07:03,42.805,6.029,0.014,-0.032,-0.017,102.0,104.0,99.0,13.3,1505.3,324.3,-0.7,1.8,2470.078,13.32,0.034,156.4
2019-07-13T07:10:04,42.805,6.029,0.049,-0.024,-0.022,102.0,104.0,98.0,13.4,1505.3,324.8,-0.7,1.8,2470.135,13.32,0.054,116.1
2019-07-13T07:13:05,42.805,6.029,0.032,-0.029,-0.013,102.0,106.0,100.0,13.4,1505.3,326.4,-0.7,1.8,2470.131,13.32,0.043,132.2
2019-07-13T07:16:06,42.805,6.029,0.013,-0.014,-0.019,102.0,105.0,100.0,13.4,1505.3,326.9,-0.7,1.8,2470.07,13.32,0.019,137.1
2019-07-13T07:19:07,42.805,6.029,0.021,-0.019,0.0,102.0,105.0,99.0,13.4,1505.3,327.0,-0.7,1.8,2470.1,13.32,0.028,132.1
2019-07-13T07:22:08,42.805,6.029,0.011,-0.029,-0.027,101.0,104.0,99.0,13.4,1505.3,328.6,-0.7,1.9,2470.113,13.32,0.031,159.2
2019-07-13T07:25:09,42.805,6.029,0.019,-0.027,-0.017,103.0,104.0,99.0,13.3,1505.3,324.8,-0.7,1.8,2470.091,13.32,0.033,144.9
2019-07-13T07:28:10,42.805,6.029,0.048,-0.028,-0.012,102.0,103.0,98.0,13.3,1505.3,323.7,-0.7,1.9,2470.098,13.32,0.055,120.3
2019-07-13T07:31:11,42.805,6.029,0.022,-0.032,-0.025,104.0,104.0,99.0,13.4,1505.3,326.5,-0.7,1.8,2470.079,13.32,0.038,145.5
2019-07-13T07:34:12,42.805,6.029,0.03,-0.017,-0.03,105.0,104.0,100.0,13.4,1505.3,324.7,-0.7,1.8,2470.055,13.32,0.034,119.5
2019-07-13T07:37:13,42.805,6.029,0.043,-0.039,-0.028,102.0,104.0,99.0,13.4,1505.3,328.2,-0.7,1.9,2470.071,13.32,0.058,132.2
2019-07-13T07:40:14,42.805,6.029,0.044,-0.023,-0.014,102.0,104.0,98.0,13.4,1505.3,324.5,-0.7,1.9,2470.056,13.32,0.049,117.6
2019-07-13T07:43:15,42.805,6.029,0.051,-0.008,-0.018,104.0,104.0,98.0,13.3,1505.3,326.4,-0.7,1.9,2470.07,13.32,0.051,98.9
2019-07-13T07:46:16,42.805,6.029,0.04,-0.01,-0.033,103.0,105.0,99.0,13.3,1505.3,324.4,-0.7,1.8,2470.038,13.32,0.041,104.0
2019-07-13T07:49:17,42.805,6.029,0.009,-0.01,-0.045,102.0,104.0,99.0,13.4,1505.3,325.3,-0.7,1.8,2470.057,13.32,0.013,138.0
2019-07-13T07:52:18,42.805,6.029,0.033,-0.035,-0.02,103.0,105.0,100.0,13.3,1505.3,325.9,-0.7,1.8,2470.077,13.32,0.048,136.7
2019-07-13T07:55:19,42.805,6.029,0.037,-0.033,-0.024,104.0,105.0,99.0,13.4,1505.3,327.3,-0.7,1.8,2470.042,13.32,0.049,131.7
2019-07-13T07:58:20,42.805,6.029,0.019,-0.021,-0.047,104.0,105.0,100.0,13.4,1505.3,323.3,-0.7,1.9,2470.058,13.32,0.028,137.9
2019-07-13T08:01:21,42.805,6.029,0.03,-0.041,-0.012,104.0,106.0,100.0,13.3,1505.3,325.3,-0.7,1.8,2470.058,13.32,0.05,143.8
2019-07-13T08:04:22,42.805,6.029,0.042,-0.029,-0.004,104.0,105.0,99.0,13.4,1505.3,328.2,-0.7,1.8,2470.042,13.32,0.051,124.6
2019-07-13T08:07:23,42.805,6.029,0.051,-0.035,-0.021,103.0,105.0,99.0,13.4,1505.3,322.6,-0.7,1.8,2470.038,13.32,0.061,124.5
2019-07-13T08:10:24,42.805,6.029,0.041,-0.024,-0.013,105.0,104.0,100.0,13.4,1505.3,324.8,-0.7,1.8,2470.067,13.32,0.047,120.3
2019-07-13T08:13:25,42.805,6.029,0.01,-0.027,0.007,105.0,105.0,99.0,13.4,1505.3,323.3,-0.7,1.8,2470.047,13.32,0.028,159.7
2019-07-13T08:16:26,42.805,6.029,0.028,-0.033,-0.063,104.0,106.0,101.0,13.4,1505.3,326.4,-0.7,1.9,2470.076,13.32,0.043,139.7
2019-07-13T08:19:27,42.805,6.029,0.029,-0.016,-0.031,104.0,103.0,100.0,13.3,1505.3,327.1,-0.7,1.8,2470.036,13.32,0.033,118.9
2019-07-13T08:22:28,42.805,6.029,0.038,-0.037,-0.018,104.0,106.0,100.0,13.4,1505.3,324.6,-0.7,1.8,2470.039,13.32,0.053,134.2
2019-07-13T08:25:29,42.805,6.029,0.033,-0.029,-0.04,104.0,106.0,99.0,13.4,1505.3,326.2,-0.7,1.8,2470.133,13.32,0.043,131.3
2019-07-13T08:28:30,42.805,6.029,0.019,-0.036,-0.016,103.0,106.0,100.0,13.4,1505.3,324.4,-0.7,1.8,2470.095,13.32,0.04,152.2
2019-07-13T08:31:31,42.805,6.029,0.05,-0.026,-0.034,103.0,104.0,101.0,13.3,1505.3,327.0,-0.7,1.8,2470.03,13.32,0.056,117.5
2019-07-13T08:34:32,42.805,6.029,0.037,-0.03,-0.041,103.0,105.0,99.0,13.3,1505.3,326.3,-0.7,1.8,2470.048,13.32,0.047,129.0
2019-07-13T08:37:33,42.805,6.029,0.052,-0.027,0.002,104.0,104.0,99.0,13.4,1505.3,324.5,-0.7,1.8,2470.063,13.32,0.058,117.4
2019-07-13T08:40:34,42.805,6.029,0.047,-0.028,-0.019,102.0,105.0,99.0,13.4,1505.3,326.4,-0.7,1.9,2470.059,13.32,0.054,120.8
2019-07-13T08:43:35,42.805,6.029,0.03,-0.032,-0.033,103.0,105.0,98.0,13.4,1505.3,323.9,-0.7,1.8,2470.081,13.32,0.043,136.9
2019-07-13T08:46:36,42.805,6.029,0.033,-0.03,-0.017,102.0,103.0,100.0,13.3,1505.3,327.7,-0.7,1.9,2470.02,13.32,0.044,132.3
2019-07-13T08:49:37,42.805,6.029,0.046,-0.036,-0.011,104.0,105.0,100.0,13.3,1505.3,322.6,-0.7,1.8,2470.049,13.32,0.058,128.0
2019-07-13T08:52:38,42.805,6.029,0.039,-0.034,0.012,105.0,104.0,99.0,13.4,1505.3,326.4,-0.7,1.8,2470.006,13.32,0.051,131.1
2019-07-13T08:55:39,42.805,6.029,0.049,-0.006,-0.003,104.0,105.0,100.0,13.4,1505.3,326.2,-0.7,1.9,2470.035,13.32,0.049,97.0
2019-07-13T08:58:40,42.805,6.029,0.042,-0.048,-0.016,104.0,104.0,100.0,13.3,1505.3,324.9,-0.8,1.9,2469.987,13.32,0.063,138.8
2019-07-13T09:01:41,42.805,6.029,0.021,-0.035,-0.019,101.0,104.0,99.0,13.3,1505.3,324.3,-0.7,1.8,2470.025,13.32,0.04,149.0
2019-07-13T09:04:42,42.805,6.029,0.002,-0.021,-0.022,104.0,107.0,99.0,13.3,1505.3,323.0,-0.7,1.8,2470.05,13.32,0.021,174.6
2019-07-13T09:07:43,42.805,6.029,0.039,-0.044,-0.019,104.0,103.0,98.0,13.3,1505.3,326.7,-0.7,1.8,2470.053,13.32,0.058,138.4
2019-07-13T09:10:44,42.805,6.029,0.011,-0.039,0.0,102.0,103.0,99.0,13.4,1505.3,327.9,-0.7,1.9,2470.06,13.32,0.04,164.3
2019-07-13T09:13:45,42.805,6.029,0.013,-0.038,-0.002,103.0,103.0,101.0,13.3,1505.3,326.4,-0.8,1.8,2470.013,13.32,0.04,161.1
2019-07-13T09:16:46,42.805,6.029,0.025,-0.023,-0.021,103.0,105.0,100.0,13.4,1505.3,323.8,-0.7,1.8,2470.018,13.32,0.033,132.6
2019-07-13T09:19:47,42.805,6.029,0.03,-0.03,-0.04,103.0,104.0,98.0,13.4,1505.3,328.3,-0.7,1.8,2469.997,13.32,0.042,135.0
2019-07-13T09:22:48,42.805,6.029,0.039,-0.056,-0.01,104.0,105.0,100.0,13.4,1505.3,326.0,-0.7,1.9,2470.004,13.32,0.068,145.1
2019-07-13T09:25:49,42.805,6.029,0.055,-0.041,-0.037,102.0,103.0,99.0,13.3,1505.3,324.8,-0.7,1.9,2470.001,13.32,0.068,126.7
2019-07-13T09:28:50,42.805,6.029,0.042,-0.022,0.006,103.0,105.0,99.0,13.4,1505.3,326.8,-0.7,1.8,2470.016,13.32,0.047,117.6
2019-07-13T09:31:51,42.805,6.029,0.016,-0.041,-0.039,105.0,105.0,98.0,13.4,1505.3,327.4,-0.7,1.8,2470.025,13.32,0.044,158.7